TimeEDT,TemperatureF,Dew PointF,Humidity,Sea Level PressureIn,VisibilityMPH,Wind Direction,Wind SpeedMPH,Gust SpeedMPH,PrecipitationIn,Events,Conditions,WindDirDegrees,DateUTC
12:56 AM,62.1,57.9,86,30.05,8.0,Calm,Calm,-,N/A,,Partly Cloudy,0,2013-10-03 04:56:00
1:56 AM,62.1,57.9,86,30.07,7.0,Calm,Calm,-,N/A,,Partly Cloudy,0,2013-10-03 05:56:00
2:56 AM,61.0,57.9,90,30.06,6.0,Calm,Calm,-,N/A,,Scattered Clouds,0,2013-10-03 06:56:00
3:56 AM,60.1,57.0,90,30.07,6.0,Calm,Calm,-,N/A,,Mostly Cloudy,0,2013-10-03 07:56:00
4:56 AM,60.1,57.0,90,30.07,5.0,Calm,Calm,-,N/A,,Scattered Clouds,0,2013-10-03 08:56:00
5:56 AM,60.1,57.9,93,30.09,5.0,Calm,Calm,-,N/A,,Partly Cloudy,0,2013-10-03 09:56:00
6:56 AM,59.0,55.9,90,30.10,4.0,Calm,Calm,-,N/A,,Mostly Cloudy,0,2013-10-03 10:56:00
7:56 AM,62.1,57.9,86,30.12,4.0,North,4.6,-,N/A,,Mostly Cloudy,360,2013-10-03 11:56:00
8:56 AM,64.9,60.1,84,30.14,5.0,NW,3.5,-,N/A,,Haze,320,2013-10-03 12:56:00
9:56 AM,69.1,61.0,75,30.13,6.0,Calm,Calm,-,N/A,,Haze,0,2013-10-03 13:56:00
10:56 AM,72.0,57.0,59,30.13,10.0,ESE,3.5,-,N/A,,Mostly Cloudy,120,2013-10-03 14:56:00
11:56 AM,75.0,57.9,55,30.11,10.0,ESE,5.8,-,N/A,,Mostly Cloudy,120,2013-10-03 15:56:00
12:56 PM,79.0,59.0,50,30.09,10.0,Calm,Calm,-,N/A,,Clear,0,2013-10-03 16:56:00
1:56 PM,78.1,59.0,52,30.07,10.0,Calm,Calm,-,N/A,,Mostly Cloudy,0,2013-10-03 17:56:00
2:56 PM,80.1,60.1,50,30.06,10.0,Calm,Calm,-,N/A,,Mostly Cloudy,0,2013-10-03 18:56:00
3:56 PM,79.0,62.1,56,30.04,10.0,SE,3.5,-,N/A,,Mostly Cloudy,140,2013-10-03 19:56:00
4:56 PM,79.0,62.1,56,30.04,10.0,West,3.5,-,N/A,,Mostly Cloudy,260,2013-10-03 20:56:00
5:56 PM,75.0,66.9,76,30.03,9.0,Calm,Calm,-,N/A,,Mostly Cloudy,0,2013-10-03 21:56:00
6:56 PM,72.0,66.0,81,30.04,9.0,Calm,Calm,-,N/A,,Overcast,0,2013-10-03 22:56:00
7:56 PM,71.1,66.0,84,30.04,9.0,Calm,Calm,-,N/A,,Overcast,0,2013-10-03 23:56:00
8:56 PM,69.1,66.0,90,30.05,8.0,Calm,Calm,-,N/A,,Mostly Cloudy,0,2013-10-04 00:56:00
9:56 PM,68.0,64.9,90,30.06,8.0,SSE,3.5,-,N/A,,Mostly Cloudy,150,2013-10-04 01:56:00
10:56 PM,71.1,64.0,78,30.06,8.0,South,5.8,-,N/A,,Scattered Clouds,190,2013-10-04 02:56:00